WX1N Weather Reports


Display with metric or nautical units.
time (UTC)temp
F
wind
direction
speed
MPH
gust
MPH
rain 1hr
in
rain 24hr
in
rain mn
in
humidity
%
barometer
mb
20260503221503 52 0 0.0 0.0 0.00 0.00 0.00 46 1006.6
20260503221003 52 0 0.0 0.0 0.00 0.00 0.00 45 1006.7
20260503220503 52 0 0.0 0.0 0.00 0.00 0.00 44 1006.7
20260503220003 52 0 0.0 0.0 0.00 0.00 0.00 42 1006.7
20260503215504 52 0 0.0 0.0 0.00 0.00 0.00 44 1006.6
20260503215003 52 0 0.0 0.0 0.00 0.00 0.00 45 1006.6
20260503214503 52 0 0.0 0.0 0.00 0.00 0.00 43 1006.6
20260503214003 52 0 0.0 0.0 0.00 0.00 0.00 46 1006.6
20260503213503 51 0 0.0 0.0 0.00 0.00 0.00 45 1006.5
20260503213003 51 0 0.0 0.0 0.00 0.00 0.00 43 1006.6
20260503212503 51 0 0.0 0.0 0.00 0.00 0.00 43 1006.6
20260503212003 51 0 0.0 0.0 0.00 0.00 0.00 44 1006.5
20260503211503 52 0 0.0 0.0 0.00 0.00 0.00 43 1006.5
20260503211004 52 0 0.0 0.0 0.00 0.00 0.00 43 1006.5
20260503210503 52 0 0.0 0.0 0.00 0.00 0.00 44 1006.5
20260503210004 52 0 0.0 0.0 0.00 0.00 0.00 44 1006.5
20260503205503 52 0 0.0 0.0 0.00 0.00 0.00 44 1006.5
20260503205003 51 0 0.0 0.0 0.00 0.00 0.00 44 1006.5
20260503204504 51 0 0.0 0.0 0.00 0.00 0.00 45 1006.5
20260503204003 51 0 0.0 0.0 0.00 0.00 0.00 44 1006.6
20260503203503 51 0 0.0 0.0 0.00 0.00 0.00 42 1006.5
20260503203003 51 0 0.0 0.0 0.00 0.00 0.00 43 1006.5
20260503202503 51 0 0.0 0.0 0.00 0.00 0.00 44 1006.4
20260503202003 51 0 0.0 0.0 0.00 0.00 0.00 43 1006.4
20260503201503 51 0 0.0 0.0 0.00 0.00 0.00 44 1006.4
20260503201004 51 0 0.0 0.0 0.00 0.00 0.00 46 1006.5
20260503200503 51 0 0.0 0.0 0.00 0.00 0.00 46 1006.4
20260503200004 51 0 0.0 0.0 0.00 0.00 0.00 46 1006.4
20260503195503 51 0 0.0 0.0 0.00 0.00 0.00 42 1006.5
20260503195003 51 0 0.0 0.0 0.00 0.00 0.00 45 1006.6
20260503194504 51 0 0.0 0.0 0.00 0.00 0.00 44 1006.6
20260503194003 51 0 0.0 0.0 0.00 0.00 0.00 44 1006.7
20260503193503 51 0 0.0 0.0 0.00 0.00 0.00 43 1006.7
20260503193003 51 0 0.0 0.0 0.00 0.00 0.00 43 1006.8
20260503192503 51 0 0.0 0.0 0.00 0.00 0.00 44 1006.7
20260503192004 51 0 0.0 0.0 0.00 0.00 0.00 46 1006.7
20260503191503 51 0 0.0 0.0 0.00 0.00 0.00 46 1006.7
20260503191004 51 0 0.0 0.0 0.00 0.00 0.00 42 1006.7
20260503190503 52 0 0.0 0.0 0.00 0.00 0.00 41 1006.8
20260503190003 52 0 0.0 0.0 0.00 0.00 0.00 41 1006.7
20260503185503 51 0 0.0 0.0 0.00 0.00 0.00 44 1006.8
20260503185003 51 0 0.0 0.0 0.00 0.00 0.00 42 1006.8
20260503184504 50 0 0.0 0.0 0.00 0.00 0.00 45 1006.8
20260503184003 50 0 0.0 0.0 0.00 0.00 0.00 44 1006.8
20260503183504 50 0 0.0 0.0 0.00 0.00 0.00 43 1006.8
20260503183003 50 0 0.0 0.0 0.00 0.00 0.00 43 1006.6
20260503182503 50 0 0.0 0.0 0.00 0.00 0.00 44 1006.6
20260503182003 51 0 0.0 0.0 0.00 0.00 0.00 41 1006.5
20260503181504 52 0 0.0 0.0 0.00 0.00 0.00 41 1006.4
20260503181004 52 0 0.0 0.0 0.00 0.00 0.00 39 1006.2
20260503180503 53 0 0.0 0.0 0.00 0.00 0.00 38 1006.0
20260503180004 53 0 0.0 0.0 0.00 0.00 0.00 37 1006.1
20260503175503 54 0 0.0 0.0 0.00 0.00 0.00 38 1006.1
20260503175003 54 0 0.0 0.0 0.00 0.00 0.00 40 1006.1
20260503174503 53 0 0.0 0.0 0.00 0.00 0.00 42 1006.1
20260503174003 52 0 0.0 0.0 0.00 0.00 0.00 40 1006.1
20260503173504 52 0 0.0 0.0 0.00 0.00 0.00 42 1006.1
20260503173003 52 0 0.0 0.0 0.00 0.00 0.00 43 1006.1
20260503172504 52 0 0.0 0.0 0.00 0.00 0.00 40 1006.1
20260503172004 51 0 0.0 0.0 0.00 0.00 0.00 43 1006.1
20260503171503 51 0 0.0 0.0 0.00 0.00 0.00 41 1006.2
20260503171004 52 0 0.0 0.0 0.00 0.00 0.00 42 1006.2
20260503170503 52 0 0.0 0.0 0.00 0.00 0.00 43 1006.1
20260503151003 47 0 0.0 0.0 0.00 0.00 0.00 55 1007.0
20260503150504 47 0 0.0 0.0 0.00 0.00 0.00 56 1007.0
20260503131004 45 0 0.0 0.0 0.00 0.00 0.00 71 1007.7
20260503130503 45 0 0.0 0.0 0.00 0.00 0.00 72 1007.7
20260503110504 39 0 0.0 0.0 0.00 0.00 0.00 79 1007.7
20260503090504 37 0 0.0 0.0 0.00 0.00 0.00 80 1008.0
20260503081504 36 0 0.0 0.0 0.00 0.00 0.00 80 1008.2
20260503081003 36 0 0.0 0.0 0.00 0.00 0.00 80 1008.4
20260503080504 35 0 0.0 0.0 0.00 0.00 0.00 80 1008.5
20260503072504 34 0 0.0 0.0 0.00 0.00 0.00 82 1008.5
20260503072003 34 0 0.0 0.0 0.00 0.00 0.00 82 1008.6
20260503071504 34 0 0.0 0.0 0.00 0.00 0.00 82 1008.6
20260503071003 34 0 0.0 0.0 0.00 0.00 0.00 82 1008.6
20260503070504 34 0 0.0 0.0 0.00 0.00 0.00 82 1008.7
20260503055004 34 0 0.0 0.0 0.00 0.00 0.00 83 1009.4
20260503054503 34 0 0.0 0.0 0.00 0.00 0.00 83 1009.4
20260503054004 34 0 0.0 0.0 0.00 0.00 0.00 83 1009.4
20260503053502 34 0 0.0 0.0 0.00 0.00 0.00 83 1009.4
20260503053002 34 0 0.0 0.0 0.00 0.00 0.00 84 1009.5
20260503052502 34 0 0.0 0.0 0.00 0.00 0.00 84 1009.4
20260503052003 34 0 0.0 0.0 0.00 0.00 0.00 84 1009.5
20260503051502 34 0 0.0 0.0 0.00 0.00 0.00 84 1009.6
20260503051002 34 0 0.0 0.0 0.00 0.00 0.00 84 1009.6
20260503050502 34 0 0.0 0.0 0.00 0.00 0.00 84 1009.6
20260503050002 34 0 0.0 0.0 0.00 0.00 0.00 85 1009.8
20260503045503 34 0 0.0 0.0 0.00 0.00 0.00 85 1009.7
20260503045002 34 0 0.0 0.0 0.00 0.00 0.00 85 1009.8
20260503044503 34 0 0.0 0.0 0.00 0.00 0.00 86 1009.9
20260503044002 35 0 0.0 0.0 0.00 0.00 0.00 86 1010.0
20260503043502 35 0 0.0 0.0 0.00 0.00 0.00 86 1009.9
20260503043002 35 0 0.0 0.0 0.00 0.00 0.00 86 1010.0
20260503042502 35 0 0.0 0.0 0.00 0.00 0.00 86 1010.1
20260503042003 36 0 0.0 0.0 0.00 0.00 0.00 86 1010.1
20260503041502 36 0 0.0 0.0 0.00 0.00 0.00 86 1010.1
20260503041002 36 0 0.0 0.0 0.00 0.00 0.00 86 1010.2
20260503040502 36 0 0.0 0.0 0.00 0.00 0.00 86 1010.2
20260503040002 36 0 0.0 0.0 0.00 0.00 0.00 86 1010.2
20260503035503 36 0 0.0 0.0 0.00 0.00 0.00 87 1010.3
20260503035002 36 0 0.0 0.0 0.00 0.00 0.00 88 1010.3
20260503034502 36 0 0.0 0.0 0.00 0.00 0.00 88 1010.3
20260503034003 36 0 0.0 0.0 0.00 0.00 0.00 88 1010.3
20260503033502 37 0 0.0 0.0 0.00 0.00 0.00 88 1010.4
20260503033003 37 0 0.0 0.0 0.00 0.00 0.00 88 1010.3
20260503032502 37 0 0.0 0.0 0.00 0.00 0.00 88 1010.3
20260503032002 37 0 0.0 0.0 0.00 0.00 0.00 88 1010.3
20260503031503 38 0 0.0 0.0 0.00 0.00 0.00 88 1010.3
20260503031002 38 0 0.0 0.0 0.00 0.00 0.00 89 1010.4
20260503030503 38 0 0.0 0.0 0.00 0.00 0.00 88 1010.4
20260503030003 38 0 0.0 0.0 0.00 0.00 0.00 88 1010.4
20260503025503 39 0 0.0 0.0 0.00 0.00 0.00 88 1010.4
20260503025002 39 0 0.0 0.0 0.00 0.00 0.00 88 1010.4
20260503024502 39 0 0.0 0.0 0.00 0.00 0.00 88 1010.4
20260503024003 40 0 0.0 0.0 0.00 0.00 0.00 87 1010.4
20260503023502 40 0 0.0 0.0 0.00 0.00 0.00 87 1010.5
20260503023003 40 0 0.0 0.0 0.00 0.00 0.00 87 1010.6
20260503022502 40 0 0.0 0.0 0.00 0.00 0.00 86 1010.6
20260503022002 41 0 0.0 0.0 0.00 0.00 0.00 85 1010.6
20260503021503 41 0 0.0 0.0 0.00 0.00 0.00 84 1010.7
20260503021002 42 0 0.0 0.0 0.00 0.00 0.00 82 1010.6
20260503020503 42 0 0.0 0.0 0.00 0.00 0.00 80 1010.6
20260503020002 43 0 0.0 0.0 0.00 0.00 0.00 78 1010.6
20260503015502 44 0 0.0 0.0 0.00 0.00 0.00 76 1010.7
20260503015002 44 0 0.0 0.0 0.00 0.00 0.00 75 1010.6
20260503014503 44 0 0.0 0.0 0.00 0.00 0.00 74 1010.6
20260503014003 44 0 0.0 0.0 0.00 0.00 0.00 75 1010.6
20260503013502 44 0 0.0 0.0 0.00 0.00 0.00 74 1010.6
20260503013003 44 0 0.0 0.0 0.00 0.00 0.00 74 1010.6
20260503012503 44 0 0.0 0.0 0.00 0.00 0.00 75 1010.6
20260503012002 45 0 0.0 0.0 0.00 0.00 0.00 74 1010.6
20260503011503 45 0 0.0 0.0 0.00 0.00 0.00 74 1010.6
20260503011004 45 0 0.0 0.0 0.00 0.00 0.00 73 1010.5
20260503010502 46 0 0.0 0.0 0.00 0.00 0.00 75 1010.5
20260503010003 46 0 0.0 0.0 0.00 0.00 0.00 74 1010.4
20260503005502 46 0 0.0 0.0 0.00 0.00 0.00 73 1010.3
20260503005003 47 0 0.0 0.0 0.00 0.00 0.00 72 1010.3
20260503004503 47 0 0.0 0.0 0.00 0.00 0.00 71 1010.3
20260503004002 47 0 0.0 0.0 0.00 0.00 0.00 71 1010.3
20260503003502 48 0 0.0 0.0 0.00 0.00 0.00 71 1010.2
20260503003003 48 0 0.0 0.0 0.00 0.00 0.00 70 1010.1
20260503002502 48 0 0.0 0.0 0.00 0.00 0.00 70 1010.1
20260503002003 48 0 0.0 0.0 0.00 0.00 0.00 69 1009.9
20260503001502 49 0 0.0 0.0 0.00 0.00 0.00 70 1009.8
20260503001003 49 0 0.0 0.0 0.00 0.00 0.00 70 1009.7
20260503000503 49 0 0.0 0.0 0.00 0.00 0.00 71 1009.6
20260503000002 48 0 0.0 0.0 0.00 0.00 0.00 76 1009.5
20260502235503 48 0 0.0 0.0 0.00 0.00 0.00 86 1009.2
20260502235002 48 0 0.0 0.0 0.00 0.00 0.00 85 1008.9
20260502234502 49 0 0.0 0.0 0.00 0.00 0.00 85 1008.9
20260502234002 49 0 0.0 0.0 0.00 0.00 0.00 84 1008.8
20260502233503 49 0 0.0 0.0 0.00 0.00 0.00 83 1008.7
20260502233003 50 0 0.0 0.0 0.00 0.00 0.00 83 1008.8
20260502232502 50 0 0.0 0.0 0.00 0.00 0.00 83 1008.7
20260502232003 50 0 0.0 0.0 0.00 0.00 0.00 82 1008.7
20260502231502 50 0 0.0 0.0 0.00 0.00 0.00 82 1008.7
20260502231003 50 0 0.0 0.0 0.00 0.00 0.00 82 1008.7
20260502230502 51 0 0.0 0.0 0.00 0.00 0.00 79 1008.7
20260502230002 51 0 0.0 0.0 0.00 0.00 0.00 80 1008.7
20260502225503 51 0 0.0 0.0 0.00 0.00 0.00 79 1008.7
20260502225002 52 0 0.0 0.0 0.00 0.00 0.00 79 1008.7
20260502224503 52 0 0.0 0.0 0.00 0.00 0.00 78 1008.6
20260502224002 52 0 0.0 0.0 0.00 0.00 0.00 78 1008.6
20260502223503 52 0 0.0 0.0 0.00 0.00 0.00 76 1008.6
20260502223002 52 0 0.0 0.0 0.00 0.00 0.00 75 1008.6
20260502222503 52 0 0.0 0.0 0.00 0.00 0.00 74 1008.6
20260502222003 53 0 0.0 0.0 0.00 0.00 0.00 72 1008.5